Hourly Data Report for July 30, 2012

HALIFAX STANFIELD INT'L A
NOVA SCOTIA

44°52'48.060" N
63°30'00.050" W
145.40 m
8202250
71395
YHZ

Download Data

Hourly Data (July 2012)
Hourly Data Report for July 30, 2012
TIME
LST
Temp Definition
°C
Dew Point Definition
°C
Rel Hum Definition
%
Precip. Amount Definition
mm

Wind Dir Definition
10's deg

Wind Spd Definition
km/h
Visibility Definition
km
Stn Press Definition
kPa
Hmdx Definition


Wind Chill Definition


Weather Definition


00:00 14.6 14.1 97   3 11 16.1 99.90     Rain Showers
01:00 14.6 14.6 100   35 9 16.1 99.91     Rain Showers
02:00 14.9 14.9 100   4 15 9.7 99.88     Rain Showers, Fog
03:00 14.4 14.4 100   2 13 9.7 99.88     Rain Showers, Fog
04:00 13.9 13.9 100   5 17 9.7 99.89     Rain Showers, Fog
05:00 13.5 13.4 99   6 20 9.7 99.92     Rain Showers, Fog
06:00 13.8 13.8 100   4 11 24.1 99.96     Cloudy
07:00 14.3 14.2 99   2 11 24.1 99.99     Mostly Cloudy
08:00 15.0 14.8 99   36 11 24.1 100.01     Mostly Cloudy
09:00 16.3 14.7 90   1 17 24.1 100.04     Mostly Cloudy
10:00 17.5 14.8 84   1 20 24.1 100.02     Mostly Cloudy
11:00 19.2 14.1 72   4 15 24.1 100.01     Mostly Cloudy
12:00 20.8 14.1 65   36 15 24.1 100.00     Mainly Clear
13:00 22.1 13.4 58   3 17 24.1 99.99 25   Mainly Clear
14:00 22.6 12.2 52   4 15 24.1 99.98 25   Mainly Clear
15:00 23.5 14.2 56   2 13 24.1 99.97 27   Mainly Clear
16:00 24.4 12.4 47   1 19 24.1 99.96 27   Mainly Clear
17:00 24.5 12.8 48   1 15 24.1 99.95 27   Clear
18:00 23.8 12.2 48   2 13 24.1 99.97 26   Clear
19:00 22.3 11.6 51   1 7 24.1 100.01     Clear
20:00 21.4 10.8 51   5 6 24.1 100.05     Mainly Clear
21:00 17.4 13.5 78   16 6 24.1 100.12     Clear
22:00 16.4 13.3 82   24 4 24.1 100.16     Clear
23:00 16.5 13.4 82   35 9 24.1 100.19     Clear

Notes on Data Quality.

Legend

  • E = Estimated
  • M = Missing
  • NA = Not Available*
  • [empty] = Indicates an unobserved value
Date modified: